Meteo Giornale » Osservazioni meteo Gran Bretagna » Southampton-Weather Centre

ore: 15:20 - Osservazioni Meteo Southampton-Weather Centre
Lat. 50° 54' N Lon. 1° 24' W Alt. 9 metri s.l.m.

poco_nuvoloso Europe/London

22 °C

Poco Nuvoloso

Temp. 24 Ore

12 °C

22 °C

Sud

14.8 Km/h

Dew point 14 °C

Umidità 60 %

Visibilità  10 Km

Il sole sorge alle ore 06:53

Il sole tramonta alle ore 19:01

Data e Ora Cielo e Fenomeni T °C DP °C Um. % Pres. hPa Vis. km Vento km/h
Oggi h: 15:20 poco_nuvoloso Poco Nuvoloso 22 14 60 1015 10 S 14.8
Oggi h: 14:50 poco_nuvoloso Poco Nuvoloso 21 14 64 1016 10 S/SO 11.1
Oggi h: 13:50 poco_nuvoloso Poco Nuvoloso 22 13 56 1016 10 O/SO 9.3
Oggi h: 13:20 poco_nuvoloso Poco Nuvoloso 21 13 60 1016 10 N 9.3
Oggi h: 12:50 poco_nuvoloso Poco Nuvoloso 20 13 64 1016 10 N 7.4
Oggi h: 12:20 poco_nuvoloso Poco Nuvoloso 19 12 63 1017 10 O 9.3
Oggi h: 11:50 poco_nuvoloso Poco Nuvoloso 19 12 63 1017 10 O 9.3
Oggi h: 11:20 poco_nuvoloso Poco Nuvoloso 18 13 72 1017 10 O/SO 9.3
Oggi h: 10:50 nuvoloso Nuvoloso 17 12 72 1018 10 O 9.3
Oggi h: 10:20 nuvoloso Nuvoloso 16 12 77 1018 10 SO 13
Oggi h: 09:50 nuvoloso Nuvoloso 16 13 82 1018 10 O 13
Oggi h: 09:20 nuvoloso Nuvoloso 15 13 87 1018 9 O 7.4
Oggi h: 08:20 foschia Foschia 13 12 93 1018 6 N 1.8
Oggi h: 07:50 foschia Foschia 12 12 100 1017 4 SO 7.4
Oggi h: 07:20 foschia Foschia 13 12 93 1018 4 N 5.5
Oggi h: 06:50 foschia Foschia 12 12 100 1017 5 SO 7.4
Oggi h: 06:20 foschia Foschia 13 12 93 1018 5 N 0
Oggi h: 05:50 nuvoloso Nuvoloso 13 12 93 1018 8 N 0
Ieri h: 21:20 nuvoloso Nuvoloso 16 15 93 1020 10 N 5.5
Ieri h: 20:50 nuvoloso Nuvoloso 17 15 88 1020 10 O/SO 9.3
Ieri h: 20:20 nuvoloso Nuvoloso 17 15 88 1019 10 N 5.5
Ieri h: 19:50 nuvoloso Nuvoloso 18 15 82 1019 10 N 5.5
Ieri h: 19:20 nuvoloso Nuvoloso 18 15 82 1019 10 O/SO 9.3
Ieri h: 18:50 nuvoloso Nuvoloso 19 15 77 1019 10 O/SO 11.1
Ieri h: 18:20 molto_nuvoloso Molto Nuvoloso 19 16 82 1019 10 O/SO 9.3
Ieri h: 17:50 molto_nuvoloso Molto Nuvoloso 19 15 77 1019 10 SO 11.1
Ieri h: 17:20 molto_nuvoloso Molto Nuvoloso 19 15 77 1019 10 O 9.3
Ieri h: 16:50 molto_nuvoloso Molto Nuvoloso 20 15 72 1019 10 O 13